Flag for France Weather past 2 weeks in Villeurbanne, France

Now
64 °F

Partly sunny.


Feels Like: 64 °F
Forecast: 42 / 51 °F
Wind: 18 mph from Northwest

Location: Lyon / Bron

Current Time: Mar 31, 2015 at 2:52:03 PM

Latest Report: Mar 31, 2015 at 2:00 PM


Visibility: N/A

Pressure: 30.12 "Hg

Humidity: 49%

Dew point: 45 °F

Location of VilleurbanneLocation

Historic Weather in Villeurbanne — Graph

°F

Villeurbanne temperature yesterday

Maximum temperature yesterday: 61 °F (at 3:30 PM)
Minimum temperature yesterday: 50 °F (at 7:00 AM)
Average temperature yesterday: 55 °F

Past Weeks' High & Low Weather Summary

 TemperatureHumidityPressure
High66 °F (Mar 18, 2:30 PM)100% (Mar 23, 7:30 AM)30.27 "Hg (Mar 23, 7:30 AM)
Low34 °F (Mar 23, 5:00 AM)36% (Mar 17, 2:30 PM)29.65 "Hg (Mar 24, 5:00 PM)
Average50 °F73%30.04 "Hg
* Reported Mar 16 1:00 PM — Mar 31 2:00 PM, Villeurbanne, Weather by CustomWeather, © 2015

Note: Actual official high and low records may vary slightly from our data, if they occured in-between our weather recording intervals... More about our weather records

Advertising

Villeurbanne weather history for previous 24 hours

 ConditionsComfort  
Time TempWeatherWind HumidityBarometerVisibility
2:00 PM
Tue, Mar 31
64 °FPartly sunny.18 mph49%30.12 "HgN/A
1:30 PM63 °FClear.3 mph56%30.09 "HgN/A
1:00 PM64 °FOvercast.7 mph49%30.09 "HgN/A
12:30 PM64 °FOvercast.3 mph52%30.09 "HgN/A
12:00 PM64 °FOvercast.5 mph49%30.09 "HgN/A
11:30 AM66 °FClear.8 mph46%30.09 "HgN/A
11:00 AM64 °FClear.12 mph52%30.07 "HgN/A
10:30 AM63 °FMild.12 mph59%30.09 "HgN/A
10:00 AM61 °FBroken clouds.9 mph63%30.09 "HgN/A
9:30 AM59 °FClear.6 mph68%30.09 "HgN/A
9:00 AM57 °FClear.8 mph72%30.09 "HgN/A
8:30 AM54 °FClear.9 mph82%30.09 "HgN/A
8:00 AM54 °FClear.8 mph82%30.07 "HgN/A
7:30 AM54 °FPassing clouds.9 mph82%30.07 "HgN/A
7:00 AM54 °FOvercast.9 mph82%30.07 "HgN/A
6:30 AM54 °FMostly cloudy.9 mph88%30.07 "HgN/A
6:00 AM54 °FMostly cloudy.9 mph88%30.07 "HgN/A
5:30 AM54 °FPassing clouds.10 mph88%30.07 "HgN/A
4:30 AM54 °FClear.6 mph88%30.09 "HgN/A
4:00 AM52 °FClear.3 mph94%30.09 "HgN/A
3:30 AM54 °FClear.3 mph88%30.09 "HgN/A
3:00 AM52 °FClear.5 mph94%30.09 "HgN/A
2:30 AM54 °FPartly cloudy.6 mph88%30.09 "HgN/A
2:00 AM54 °FOvercast.1 mph94%30.12 "HgN/A
1:30 AM54 °FMostly cloudy.5 mph94%30.12 "HgN/A
1:00 AM54 °FMostly cloudy.3 mph94%30.12 "HgN/A
12:30 AM55 °FOvercast.2 mph88%30.12 "HgN/A
12:00 AM54 °FMostly cloudy.2 mph88%30.15 "HgN/A
11:30 PM
Mon, Mar 30
54 °FPartly cloudy.2 mph94%30.12 "HgN/A
11:00 PM55 °FPassing clouds.1 mph88%30.12 "HgN/A
10:30 PM55 °FLight rain. Overcast.No wind88%30.12 "Hg6 mi
10:00 PM55 °FLight rain. Mostly cloudy.5 mph88%30.12 "HgN/A
9:30 PM57 °FLight rain. Passing clouds.1 mph82%30.09 "HgN/A
9:00 PM55 °FLight rain. Mostly cloudy.5 mph88%30.09 "HgN/A
8:30 PM57 °FLight rain. Mostly cloudy.2 mph82%30.09 "Hg5 mi
8:00 PM57 °FBroken clouds.6 mph82%30.07 "HgN/A
7:30 PM59 °FMore clouds than sun.6 mph77%30.07 "HgN/A
7:00 PM61 °FMostly cloudy.6 mph63%30.04 "HgN/A
6:30 PM61 °FCloudy.9 mph63%30.04 "HgN/A
6:00 PM61 °FPartly sunny.14 mph63%30.04 "HgN/A
5:30 PM61 °FPartly sunny.12 mph63%30.04 "HgN/A
5:00 PM61 °FBroken clouds.12 mph63%30.04 "HgN/A
4:30 PM61 °FPartly sunny.5 mph68%30.04 "HgN/A
4:00 PM61 °FBroken clouds.5 mph72%30.04 "HgN/A
3:30 PM61 °FBroken clouds.3 mph72%30.04 "HgN/A
3:00 PM59 °FPartly sunny.3 mph77%30.04 "HgN/A
2:30 PM59 °FBroken clouds.2 mph72%30.01 "HgN/A
2:00 PM57 °FBroken clouds.3 mph77%30.04 "HgN/A
Weather by CustomWeather, © 2015

See weather overviewHow to use our weather pages